owner,sensor,date,latitude,longitude,relative_humidity,qcFlag 
COMPS,ioos:station:USF.COMPS:ARP:1,2015-08-01T00:00:00Z,28.4330,-82.6670,88.64,1111122 
COMPS,ioos:station:USF.COMPS:ARP:1,2015-08-01T00:06:00Z,28.4330,-82.6670,88.61,1111122 
COMPS,ioos:station:USF.COMPS:ARP:1,2015-08-01T00:12:00Z,28.4330,-82.6670,88.52,1111122 
COMPS,ioos:station:USF.COMPS:ARP:1,2015-08-01T00:18:00Z,28.4330,-82.6670,89.0,1111122 
COMPS,ioos:station:USF.COMPS:ARP:1,2015-08-01T00:24:00Z,28.4330,-82.6670,88.88,1111122 
COMPS,ioos:station:USF.COMPS:ARP:1,2015-08-01T00:30:00Z,28.4330,-82.6670,87.36,1111122 
COMPS,ioos:station:USF.COMPS:ARP:1,2015-08-01T00:36:00Z,28.4330,-82.6670,87.14,1111122 
COMPS,ioos:station:USF.COMPS:ARP:1,2015-08-01T00:42:00Z,28.4330,-82.6670,87.4,1111122 
COMPS,ioos:station:USF.COMPS:ARP:1,2015-08-01T00:48:00Z,28.4330,-82.6670,87.24,1111122 
COMPS,ioos:station:USF.COMPS:ARP:1,2015-08-01T00:54:00Z,28.4330,-82.6670,87.2,1111122 
COMPS,ioos:station:USF.COMPS:ARP:1,2015-08-01T01:00:00Z,28.4330,-82.6670,87.5,1111122 
COMPS,ioos:station:USF.COMPS:ARP:1,2015-08-01T01:06:00Z,28.4330,-82.6670,86.95,1111122 
COMPS,ioos:station:USF.COMPS:ARP:1,2015-08-01T01:12:00Z,28.4330,-82.6670,84.58,1111122 
COMPS,ioos:station:USF.COMPS:ARP:1,2015-08-01T01:18:00Z,28.4330,-82.6670,83.29,1111122 
COMPS,ioos:station:USF.COMPS:ARP:1,2015-08-01T01:24:00Z,28.4330,-82.6670,85.48,1111122 
COMPS,ioos:station:USF.COMPS:ARP:1,2015-08-01T01:30:00Z,28.4330,-82.6670,88.13,1111122 
COMPS,ioos:station:USF.COMPS:ARP:1,2015-08-01T01:36:00Z,28.4330,-82.6670,89.75,1111122 
COMPS,ioos:station:USF.COMPS:ARP:1,2015-08-01T01:42:00Z,28.4330,-82.6670,90.42,1111122 
COMPS,ioos:station:USF.COMPS:ARP:1,2015-08-01T01:48:00Z,28.4330,-82.6670,90.65,1111122 
COMPS,ioos:station:USF.COMPS:ARP:1,2015-08-01T01:54:00Z,28.4330,-82.6670,90.92,1111122 
COMPS,ioos:station:USF.COMPS:ARP:1,2015-08-01T02:00:00Z,28.4330,-82.6670,91.14,1111122 
COMPS,ioos:station:USF.COMPS:ARP:1,2015-08-01T02:06:00Z,28.4330,-82.6670,91.23,1111122 
COMPS,ioos:station:USF.COMPS:ARP:1,2015-08-01T02:12:00Z,28.4330,-82.6670,91.13,1111122 
COMPS,ioos:station:USF.COMPS:ARP:1,2015-08-01T02:18:00Z,28.4330,-82.6670,90.71,1111122 
COMPS,ioos:station:USF.COMPS:ARP:1,2015-08-01T02:24:00Z,28.4330,-82.6670,90.33,1111122 
COMPS,ioos:station:USF.COMPS:ARP:1,2015-08-01T02:30:00Z,28.4330,-82.6670,90.41,1111122 
COMPS,ioos:station:USF.COMPS:ARP:1,2015-08-01T02:36:00Z,28.4330,-82.6670,90.78,1111122 
COMPS,ioos:station:USF.COMPS:ARP:1,2015-08-01T02:42:00Z,28.4330,-82.6670,90.85,1111122 
COMPS,ioos:station:USF.COMPS:ARP:1,2015-08-01T02:48:00Z,28.4330,-82.6670,91.27,1111122 
COMPS,ioos:station:USF.COMPS:ARP:1,2015-08-01T02:54:00Z,28.4330,-82.6670,91.65,1111122 
COMPS,ioos:station:USF.COMPS:ARP:1,2015-08-01T03:00:00Z,28.4330,-82.6670,91.84,1111122 
COMPS,ioos:station:USF.COMPS:ARP:1,2015-08-01T03:06:00Z,28.4330,-82.6670,91.93,1111122 
COMPS,ioos:station:USF.COMPS:ARP:1,2015-08-01T03:12:00Z,28.4330,-82.6670,91.97,1111122 
COMPS,ioos:station:USF.COMPS:ARP:1,2015-08-01T03:18:00Z,28.4330,-82.6670,91.91,1111122 
COMPS,ioos:station:USF.COMPS:ARP:1,2015-08-01T03:24:00Z,28.4330,-82.6670,91.73,1111122 
COMPS,ioos:station:USF.COMPS:ARP:1,2015-08-01T03:30:00Z,28.4330,-82.6670,91.67,1111122 
COMPS,ioos:station:USF.COMPS:ARP:1,2015-08-01T03:36:00Z,28.4330,-82.6670,91.76,1111122 
COMPS,ioos:station:USF.COMPS:ARP:1,2015-08-01T03:42:00Z,28.4330,-82.6670,92.04,1111122 
COMPS,ioos:station:USF.COMPS:ARP:1,2015-08-01T03:48:00Z,28.4330,-82.6670,92.37,1111122 
COMPS,ioos:station:USF.COMPS:ARP:1,2015-08-01T03:54:00Z,28.4330,-82.6670,92.71,1111122 
COMPS,ioos:station:USF.COMPS:ARP:1,2015-08-01T04:00:00Z,28.4330,-82.6670,93.11,1111122 
COMPS,ioos:station:USF.COMPS:ARP:1,2015-08-01T04:06:00Z,28.4330,-82.6670,93.44,1111122 
COMPS,ioos:station:USF.COMPS:ARP:1,2015-08-01T04:12:00Z,28.4330,-82.6670,93.6,1111122 
COMPS,ioos:station:USF.COMPS:ARP:1,2015-08-01T04:18:00Z,28.4330,-82.6670,93.68,1111122 
COMPS,ioos:station:USF.COMPS:ARP:1,2015-08-01T04:24:00Z,28.4330,-82.6670,93.63,1111122 
COMPS,ioos:station:USF.COMPS:ARP:1,2015-08-01T04:30:00Z,28.4330,-82.6670,93.53,1111122 
COMPS,ioos:station:USF.COMPS:ARP:1,2015-08-01T04:36:00Z,28.4330,-82.6670,93.23,1111122 
COMPS,ioos:station:USF.COMPS:ARP:1,2015-08-01T04:42:00Z,28.4330,-82.6670,92.92,1111122 
COMPS,ioos:station:USF.COMPS:ARP:1,2015-08-01T04:48:00Z,28.4330,-82.6670,92.73,1111122 
COMPS,ioos:station:USF.COMPS:ARP:1,2015-08-01T04:54:00Z,28.4330,-82.6670,92.69,1111122 
COMPS,ioos:station:USF.COMPS:ARP:1,2015-08-01T05:00:00Z,28.4330,-82.6670,92.83,1111122 
COMPS,ioos:station:USF.COMPS:ARP:1,2015-08-01T05:06:00Z,28.4330,-82.6670,93.13,1111122 
COMPS,ioos:station:USF.COMPS:ARP:1,2015-08-01T05:12:00Z,28.4330,-82.6670,93.28,1111122 
COMPS,ioos:station:USF.COMPS:ARP:1,2015-08-01T05:18:00Z,28.4330,-82.6670,93.43,1111122 
COMPS,ioos:station:USF.COMPS:ARP:1,2015-08-01T05:24:00Z,28.4330,-82.6670,93.53,1111122 
COMPS,ioos:station:USF.COMPS:ARP:1,2015-08-01T05:30:00Z,28.4330,-82.6670,93.73,1111122 
COMPS,ioos:station:USF.COMPS:ARP:1,2015-08-01T05:36:00Z,28.4330,-82.6670,94.03,1111122 
COMPS,ioos:station:USF.COMPS:ARP:1,2015-08-01T05:42:00Z,28.4330,-82.6670,94.23,1111122 
COMPS,ioos:station:USF.COMPS:ARP:1,2015-08-01T05:48:00Z,28.4330,-82.6670,94.37,1111122 
COMPS,ioos:station:USF.COMPS:ARP:1,2015-08-01T05:54:00Z,28.4330,-82.6670,94.41,1111122 
COMPS,ioos:station:USF.COMPS:ARP:1,2015-08-01T06:00:00Z,28.4330,-82.6670,94.42,1111122 
COMPS,ioos:station:USF.COMPS:ARP:1,2015-08-01T06:06:00Z,28.4330,-82.6670,94.22,1111122 
COMPS,ioos:station:USF.COMPS:ARP:1,2015-08-01T06:12:00Z,28.4330,-82.6670,93.91,1111122 
COMPS,ioos:station:USF.COMPS:ARP:1,2015-08-01T06:18:00Z,28.4330,-82.6670,93.56,1111122 
COMPS,ioos:station:USF.COMPS:ARP:1,2015-08-01T06:24:00Z,28.4330,-82.6670,92.37,1111122 
COMPS,ioos:station:USF.COMPS:ARP:1,2015-08-01T06:30:00Z,28.4330,-82.6670,91.08,1111122 
COMPS,ioos:station:USF.COMPS:ARP:1,2015-08-01T06:36:00Z,28.4330,-82.6670,90.61,1111122 
COMPS,ioos:station:USF.COMPS:ARP:1,2015-08-01T06:42:00Z,28.4330,-82.6670,90.63,1111122 
COMPS,ioos:station:USF.COMPS:ARP:1,2015-08-01T06:48:00Z,28.4330,-82.6670,89.9,1111122 
COMPS,ioos:station:USF.COMPS:ARP:1,2015-08-01T06:54:00Z,28.4330,-82.6670,87.51,1111122 
COMPS,ioos:station:USF.COMPS:ARP:1,2015-08-01T07:00:00Z,28.4330,-82.6670,87.49,1111122 
COMPS,ioos:station:USF.COMPS:ARP:1,2015-08-01T07:06:00Z,28.4330,-82.6670,85.76,1111122 
COMPS,ioos:station:USF.COMPS:ARP:1,2015-08-01T07:12:00Z,28.4330,-82.6670,86.09,1111122 
COMPS,ioos:station:USF.COMPS:ARP:1,2015-08-01T07:18:00Z,28.4330,-82.6670,88.0,1111122 
COMPS,ioos:station:USF.COMPS:ARP:1,2015-08-01T07:24:00Z,28.4330,-82.6670,89.35,1111122 
COMPS,ioos:station:USF.COMPS:ARP:1,2015-08-01T07:30:00Z,28.4330,-82.6670,90.21,1111122 
COMPS,ioos:station:USF.COMPS:ARP:1,2015-08-01T07:36:00Z,28.4330,-82.6670,91.06,1111122 
COMPS,ioos:station:USF.COMPS:ARP:1,2015-08-01T07:42:00Z,28.4330,-82.6670,92.01,1111122 
COMPS,ioos:station:USF.COMPS:ARP:1,2015-08-01T07:48:00Z,28.4330,-82.6670,92.72,1111122 
COMPS,ioos:station:USF.COMPS:ARP:1,2015-08-01T07:54:00Z,28.4330,-82.6670,93.23,1111122 
COMPS,ioos:station:USF.COMPS:ARP:1,2015-08-01T08:00:00Z,28.4330,-82.6670,93.63,1111122 
COMPS,ioos:station:USF.COMPS:ARP:1,2015-08-01T08:06:00Z,28.4330,-82.6670,93.88,1111122 
COMPS,ioos:station:USF.COMPS:ARP:1,2015-08-01T08:12:00Z,28.4330,-82.6670,94.02,1111122 
COMPS,ioos:station:USF.COMPS:ARP:1,2015-08-01T08:18:00Z,28.4330,-82.6670,94.07,1111122 
COMPS,ioos:station:USF.COMPS:ARP:1,2015-08-01T08:24:00Z,28.4330,-82.6670,94.16,1111122 
COMPS,ioos:station:USF.COMPS:ARP:1,2015-08-01T08:30:00Z,28.4330,-82.6670,94.2,1111122 
COMPS,ioos:station:USF.COMPS:ARP:1,2015-08-01T08:36:00Z,28.4330,-82.6670,93.56,1111122 
COMPS,ioos:station:USF.COMPS:ARP:1,2015-08-01T08:42:00Z,28.4330,-82.6670,90.39,1111122 
COMPS,ioos:station:USF.COMPS:ARP:1,2015-08-01T08:48:00Z,28.4330,-82.6670,87.54,1111122 
COMPS,ioos:station:USF.COMPS:ARP:1,2015-08-01T08:54:00Z,28.4330,-82.6670,86.63,1111122 
COMPS,ioos:station:USF.COMPS:ARP:1,2015-08-01T09:00:00Z,28.4330,-82.6670,86.62,1111122 
COMPS,ioos:station:USF.COMPS:ARP:1,2015-08-01T09:06:00Z,28.4330,-82.6670,84.41,1111122 
COMPS,ioos:station:USF.COMPS:ARP:1,2015-08-01T09:12:00Z,28.4330,-82.6670,84.36,1111122 
COMPS,ioos:station:USF.COMPS:ARP:1,2015-08-01T09:18:00Z,28.4330,-82.6670,84.36,1111122 
COMPS,ioos:station:USF.COMPS:ARP:1,2015-08-01T09:24:00Z,28.4330,-82.6670,84.26,1111122 
COMPS,ioos:station:USF.COMPS:ARP:1,2015-08-01T09:30:00Z,28.4330,-82.6670,85.65,1111122 
COMPS,ioos:station:USF.COMPS:ARP:1,2015-08-01T09:36:00Z,28.4330,-82.6670,87.73,1111122 
COMPS,ioos:station:USF.COMPS:ARP:1,2015-08-01T09:42:00Z,28.4330,-82.6670,87.36,1111122 
COMPS,ioos:station:USF.COMPS:ARP:1,2015-08-01T09:48:00Z,28.4330,-82.6670,87.15,1111122 
COMPS,ioos:station:USF.COMPS:ARP:1,2015-08-01T09:54:00Z,28.4330,-82.6670,88.09,1111122 
COMPS,ioos:station:USF.COMPS:ARP:1,2015-08-01T10:00:00Z,28.4330,-82.6670,89.64,1111122 
COMPS,ioos:station:USF.COMPS:ARP:1,2015-08-01T10:06:00Z,28.4330,-82.6670,90.88,1111122 
COMPS,ioos:station:USF.COMPS:ARP:1,2015-08-01T10:12:00Z,28.4330,-82.6670,91.65,1111122 
COMPS,ioos:station:USF.COMPS:ARP:1,2015-08-01T10:18:00Z,28.4330,-82.6670,92.11,1111122 
COMPS,ioos:station:USF.COMPS:ARP:1,2015-08-01T10:24:00Z,28.4330,-82.6670,92.69,1111122 
COMPS,ioos:station:USF.COMPS:ARP:1,2015-08-01T10:30:00Z,28.4330,-82.6670,93.28,1111122 
COMPS,ioos:station:USF.COMPS:ARP:1,2015-08-01T10:36:00Z,28.4330,-82.6670,93.57,1111122 
COMPS,ioos:station:USF.COMPS:ARP:1,2015-08-01T10:42:00Z,28.4330,-82.6670,93.81,1111122 
COMPS,ioos:station:USF.COMPS:ARP:1,2015-08-01T10:48:00Z,28.4330,-82.6670,94.1,1111122 
COMPS,ioos:station:USF.COMPS:ARP:1,2015-08-01T10:54:00Z,28.4330,-82.6670,94.31,1111122 
COMPS,ioos:station:USF.COMPS:ARP:1,2015-08-01T11:00:00Z,28.4330,-82.6670,94.5,1111122 
COMPS,ioos:station:USF.COMPS:ARP:1,2015-08-01T11:06:00Z,28.4330,-82.6670,94.56,1111122 
COMPS,ioos:station:USF.COMPS:ARP:1,2015-08-01T11:12:00Z,28.4330,-82.6670,94.59,1111122 
COMPS,ioos:station:USF.COMPS:ARP:1,2015-08-01T11:18:00Z,28.4330,-82.6670,94.6,1111122 
COMPS,ioos:station:USF.COMPS:ARP:1,2015-08-01T11:24:00Z,28.4330,-82.6670,94.6,1111122 
COMPS,ioos:station:USF.COMPS:ARP:1,2015-08-01T11:30:00Z,28.4330,-82.6670,94.73,1111122 
COMPS,ioos:station:USF.COMPS:ARP:1,2015-08-01T11:36:00Z,28.4330,-82.6670,94.86,1111122 
COMPS,ioos:station:USF.COMPS:ARP:1,2015-08-01T11:42:00Z,28.4330,-82.6670,95.1,1111122 
COMPS,ioos:station:USF.COMPS:ARP:1,2015-08-01T11:48:00Z,28.4330,-82.6670,95.29,1111122 
COMPS,ioos:station:USF.COMPS:ARP:1,2015-08-01T11:54:00Z,28.4330,-82.6670,95.42,1111122 
COMPS,ioos:station:USF.COMPS:ARP:1,2015-08-01T12:00:00Z,28.4330,-82.6670,95.54,1111122 
COMPS,ioos:station:USF.COMPS:ARP:1,2015-08-01T12:06:00Z,28.4330,-82.6670,95.49,1111122 
COMPS,ioos:station:USF.COMPS:ARP:1,2015-08-01T12:12:00Z,28.4330,-82.6670,95.46,1111122 
COMPS,ioos:station:USF.COMPS:ARP:1,2015-08-01T12:18:00Z,28.4330,-82.6670,95.35,1111122 
COMPS,ioos:station:USF.COMPS:ARP:1,2015-08-01T12:24:00Z,28.4330,-82.6670,95.17,1111122 
COMPS,ioos:station:USF.COMPS:ARP:1,2015-08-01T12:30:00Z,28.4330,-82.6670,94.81,1111122 
COMPS,ioos:station:USF.COMPS:ARP:1,2015-08-01T12:36:00Z,28.4330,-82.6670,94.32,1111122 
COMPS,ioos:station:USF.COMPS:ARP:1,2015-08-01T12:42:00Z,28.4330,-82.6670,93.84,1111122 
COMPS,ioos:station:USF.COMPS:ARP:1,2015-08-01T12:48:00Z,28.4330,-82.6670,93.46,1111122 
COMPS,ioos:station:USF.COMPS:ARP:1,2015-08-01T12:54:00Z,28.4330,-82.6670,93.02,1111122 
COMPS,ioos:station:USF.COMPS:ARP:1,2015-08-01T13:00:00Z,28.4330,-82.6670,92.8,1111122 
COMPS,ioos:station:USF.COMPS:ARP:1,2015-08-01T13:06:00Z,28.4330,-82.6670,92.38,1111122 
COMPS,ioos:station:USF.COMPS:ARP:1,2015-08-01T13:12:00Z,28.4330,-82.6670,91.43,1111122 
COMPS,ioos:station:USF.COMPS:ARP:1,2015-08-01T13:18:00Z,28.4330,-82.6670,90.75,1111122 
COMPS,ioos:station:USF.COMPS:ARP:1,2015-08-01T13:24:00Z,28.4330,-82.6670,89.71,1111122 
COMPS,ioos:station:USF.COMPS:ARP:1,2015-08-01T13:30:00Z,28.4330,-82.6670,87.05,1111122 
COMPS,ioos:station:USF.COMPS:ARP:1,2015-08-01T13:36:00Z,28.4330,-82.6670,83.59,1111122 
COMPS,ioos:station:USF.COMPS:ARP:1,2015-08-01T13:42:00Z,28.4330,-82.6670,81.59,1111122 
COMPS,ioos:station:USF.COMPS:ARP:1,2015-08-01T13:48:00Z,28.4330,-82.6670,81.6,1111122 
COMPS,ioos:station:USF.COMPS:ARP:1,2015-08-01T13:54:00Z,28.4330,-82.6670,82.44,1111122 
COMPS,ioos:station:USF.COMPS:ARP:1,2015-08-01T14:00:00Z,28.4330,-82.6670,82.95,1111122 
COMPS,ioos:station:USF.COMPS:ARP:1,2015-08-01T14:06:00Z,28.4330,-82.6670,83.54,1111122 
COMPS,ioos:station:USF.COMPS:ARP:1,2015-08-01T14:12:00Z,28.4330,-82.6670,85.42,1111122 
COMPS,ioos:station:USF.COMPS:ARP:1,2015-08-01T14:18:00Z,28.4330,-82.6670,89.99,1111122 
COMPS,ioos:station:USF.COMPS:ARP:1,2015-08-01T14:24:00Z,28.4330,-82.6670,88.84,1111122 
COMPS,ioos:station:USF.COMPS:ARP:1,2015-08-01T14:30:00Z,28.4330,-82.6670,87.25,1111122 
COMPS,ioos:station:USF.COMPS:ARP:1,2015-08-01T14:36:00Z,28.4330,-82.6670,87.72,1111122 
COMPS,ioos:station:USF.COMPS:ARP:1,2015-08-01T14:42:00Z,28.4330,-82.6670,87.99,1111122 
COMPS,ioos:station:USF.COMPS:ARP:1,2015-08-01T14:48:00Z,28.4330,-82.6670,89.4,1111122 
COMPS,ioos:station:USF.COMPS:ARP:1,2015-08-01T14:54:00Z,28.4330,-82.6670,86.86,1111122 
COMPS,ioos:station:USF.COMPS:ARP:1,2015-08-01T15:00:00Z,28.4330,-82.6670,83.55,1111122 
COMPS,ioos:station:USF.COMPS:ARP:1,2015-08-01T15:06:00Z,28.4330,-82.6670,85.27,1111122 
COMPS,ioos:station:USF.COMPS:ARP:1,2015-08-01T15:12:00Z,28.4330,-82.6670,88.06,1111122 
COMPS,ioos:station:USF.COMPS:ARP:1,2015-08-01T15:18:00Z,28.4330,-82.6670,89.57,1111122 
COMPS,ioos:station:USF.COMPS:ARP:1,2015-08-01T15:24:00Z,28.4330,-82.6670,89.64,1111122 
COMPS,ioos:station:USF.COMPS:ARP:1,2015-08-01T15:30:00Z,28.4330,-82.6670,90.19,1111122 
COMPS,ioos:station:USF.COMPS:ARP:1,2015-08-01T15:36:00Z,28.4330,-82.6670,91.47,1111122 
COMPS,ioos:station:USF.COMPS:ARP:1,2015-08-01T15:42:00Z,28.4330,-82.6670,91.88,1111122 
COMPS,ioos:station:USF.COMPS:ARP:1,2015-08-01T15:48:00Z,28.4330,-82.6670,91.73,1111122 
COMPS,ioos:station:USF.COMPS:ARP:1,2015-08-01T15:54:00Z,28.4330,-82.6670,91.51,1111122 
COMPS,ioos:station:USF.COMPS:ARP:1,2015-08-01T16:00:00Z,28.4330,-82.6670,90.92,1111122 
COMPS,ioos:station:USF.COMPS:ARP:1,2015-08-01T16:06:00Z,28.4330,-82.6670,90.29,1111122 
COMPS,ioos:station:USF.COMPS:ARP:1,2015-08-01T16:12:00Z,28.4330,-82.6670,90.23,1111122 
COMPS,ioos:station:USF.COMPS:ARP:1,2015-08-01T16:18:00Z,28.4330,-82.6670,90.36,1111122 
COMPS,ioos:station:USF.COMPS:ARP:1,2015-08-01T16:24:00Z,28.4330,-82.6670,90.05,1111122 
COMPS,ioos:station:USF.COMPS:ARP:1,2015-08-01T16:30:00Z,28.4330,-82.6670,90.74,1111122 
COMPS,ioos:station:USF.COMPS:ARP:1,2015-08-01T16:36:00Z,28.4330,-82.6670,90.84,1111122 
COMPS,ioos:station:USF.COMPS:ARP:1,2015-08-01T16:42:00Z,28.4330,-82.6670,90.73,1111122 
COMPS,ioos:station:USF.COMPS:ARP:1,2015-08-01T16:48:00Z,28.4330,-82.6670,90.77,1111122 
COMPS,ioos:station:USF.COMPS:ARP:1,2015-08-01T16:54:00Z,28.4330,-82.6670,90.84,1111122 
COMPS,ioos:station:USF.COMPS:ARP:1,2015-08-01T17:00:00Z,28.4330,-82.6670,90.92,1111122 
COMPS,ioos:station:USF.COMPS:ARP:1,2015-08-01T17:06:00Z,28.4330,-82.6670,91.02,1111122 
COMPS,ioos:station:USF.COMPS:ARP:1,2015-08-01T17:12:00Z,28.4330,-82.6670,91.1,1111122 
COMPS,ioos:station:USF.COMPS:ARP:1,2015-08-01T17:18:00Z,28.4330,-82.6670,91.25,1111122 
COMPS,ioos:station:USF.COMPS:ARP:1,2015-08-01T17:24:00Z,28.4330,-82.6670,91.31,1111122 
COMPS,ioos:station:USF.COMPS:ARP:1,2015-08-01T17:30:00Z,28.4330,-82.6670,90.76,1111122 
COMPS,ioos:station:USF.COMPS:ARP:1,2015-08-01T17:36:00Z,28.4330,-82.6670,90.34,1111122 
COMPS,ioos:station:USF.COMPS:ARP:1,2015-08-01T17:42:00Z,28.4330,-82.6670,89.99,1111122 
COMPS,ioos:station:USF.COMPS:ARP:1,2015-08-01T17:48:00Z,28.4330,-82.6670,88.79,1111122 
COMPS,ioos:station:USF.COMPS:ARP:1,2015-08-01T17:54:00Z,28.4330,-82.6670,89.25,1111122 
COMPS,ioos:station:USF.COMPS:ARP:1,2015-08-01T18:00:00Z,28.4330,-82.6670,89.72,1111122 
COMPS,ioos:station:USF.COMPS:ARP:1,2015-08-01T18:06:00Z,28.4330,-82.6670,89.96,1111122 
COMPS,ioos:station:USF.COMPS:ARP:1,2015-08-01T18:12:00Z,28.4330,-82.6670,90.39,1111122 
COMPS,ioos:station:USF.COMPS:ARP:1,2015-08-01T18:18:00Z,28.4330,-82.6670,90.56,1111122 
COMPS,ioos:station:USF.COMPS:ARP:1,2015-08-01T18:24:00Z,28.4330,-82.6670,90.84,1111122 
COMPS,ioos:station:USF.COMPS:ARP:1,2015-08-01T18:30:00Z,28.4330,-82.6670,91.15,1111122 
COMPS,ioos:station:USF.COMPS:ARP:1,2015-08-01T18:36:00Z,28.4330,-82.6670,91.67,1111122 
COMPS,ioos:station:USF.COMPS:ARP:1,2015-08-01T18:42:00Z,28.4330,-82.6670,91.86,1111122 
COMPS,ioos:station:USF.COMPS:ARP:1,2015-08-01T18:48:00Z,28.4330,-82.6670,92.23,1111122 
COMPS,ioos:station:USF.COMPS:ARP:1,2015-08-01T18:54:00Z,28.4330,-82.6670,93.17,1111122 
COMPS,ioos:station:USF.COMPS:ARP:1,2015-08-01T19:00:00Z,28.4330,-82.6670,93.75,1111122 
COMPS,ioos:station:USF.COMPS:ARP:1,2015-08-01T19:06:00Z,28.4330,-82.6670,91.56,1111122 
COMPS,ioos:station:USF.COMPS:ARP:1,2015-08-01T19:12:00Z,28.4330,-82.6670,91.03,1111122 
COMPS,ioos:station:USF.COMPS:ARP:1,2015-08-01T19:18:00Z,28.4330,-82.6670,90.83,1111122 
COMPS,ioos:station:USF.COMPS:ARP:1,2015-08-01T19:24:00Z,28.4330,-82.6670,91.89,1111122 
COMPS,ioos:station:USF.COMPS:ARP:1,2015-08-01T19:30:00Z,28.4330,-82.6670,92.56,1111122 
COMPS,ioos:station:USF.COMPS:ARP:1,2015-08-01T19:36:00Z,28.4330,-82.6670,92.75,1111122 
COMPS,ioos:station:USF.COMPS:ARP:1,2015-08-01T19:42:00Z,28.4330,-82.6670,93.44,1111122 
COMPS,ioos:station:USF.COMPS:ARP:1,2015-08-01T19:48:00Z,28.4330,-82.6670,93.77,1111122 
COMPS,ioos:station:USF.COMPS:ARP:1,2015-08-01T19:54:00Z,28.4330,-82.6670,93.94,1111122 
COMPS,ioos:station:USF.COMPS:ARP:1,2015-08-01T20:00:00Z,28.4330,-82.6670,93.82,1111122 
COMPS,ioos:station:USF.COMPS:ARP:1,2015-08-01T20:06:00Z,28.4330,-82.6670,92.31,1111122 
COMPS,ioos:station:USF.COMPS:ARP:1,2015-08-01T20:12:00Z,28.4330,-82.6670,91.88,1111122 
COMPS,ioos:station:USF.COMPS:ARP:1,2015-08-01T20:18:00Z,28.4330,-82.6670,91.92,1111122 
COMPS,ioos:station:USF.COMPS:ARP:1,2015-08-01T20:24:00Z,28.4330,-82.6670,92.32,1111122 
COMPS,ioos:station:USF.COMPS:ARP:1,2015-08-01T20:30:00Z,28.4330,-82.6670,92.81,1111122 
COMPS,ioos:station:USF.COMPS:ARP:1,2015-08-01T20:36:00Z,28.4330,-82.6670,93.11,1111122 
COMPS,ioos:station:USF.COMPS:ARP:1,2015-08-01T20:42:00Z,28.4330,-82.6670,88.64,1111122 
COMPS,ioos:station:USF.COMPS:ARP:1,2015-08-01T20:48:00Z,28.4330,-82.6670,87.97,1111122 
COMPS,ioos:station:USF.COMPS:ARP:1,2015-08-01T20:54:00Z,28.4330,-82.6670,87.61,1111122 
COMPS,ioos:station:USF.COMPS:ARP:1,2015-08-01T21:00:00Z,28.4330,-82.6670,88.5,1111122 
COMPS,ioos:station:USF.COMPS:ARP:1,2015-08-01T21:06:00Z,28.4330,-82.6670,88.02,1111122 
COMPS,ioos:station:USF.COMPS:ARP:1,2015-08-01T21:12:00Z,28.4330,-82.6670,87.62,1111122 
COMPS,ioos:station:USF.COMPS:ARP:1,2015-08-01T21:18:00Z,28.4330,-82.6670,87.5,1111122 
COMPS,ioos:station:USF.COMPS:ARP:1,2015-08-01T21:24:00Z,28.4330,-82.6670,88.09,1111122 
COMPS,ioos:station:USF.COMPS:ARP:1,2015-08-01T21:30:00Z,28.4330,-82.6670,87.54,1111122 
COMPS,ioos:station:USF.COMPS:ARP:1,2015-08-01T21:36:00Z,28.4330,-82.6670,87.1,1111122 
COMPS,ioos:station:USF.COMPS:ARP:1,2015-08-01T21:42:00Z,28.4330,-82.6670,85.69,1111122 
COMPS,ioos:station:USF.COMPS:ARP:1,2015-08-01T21:48:00Z,28.4330,-82.6670,85.5,1111122 
COMPS,ioos:station:USF.COMPS:ARP:1,2015-08-01T21:54:00Z,28.4330,-82.6670,85.4,1111122 
COMPS,ioos:station:USF.COMPS:ARP:1,2015-08-01T22:00:00Z,28.4330,-82.6670,84.17,1111122 
COMPS,ioos:station:USF.COMPS:ARP:1,2015-08-01T22:06:00Z,28.4330,-82.6670,83.92,1111122 
COMPS,ioos:station:USF.COMPS:ARP:1,2015-08-01T22:12:00Z,28.4330,-82.6670,85.1,1111122 
COMPS,ioos:station:USF.COMPS:ARP:1,2015-08-01T22:18:00Z,28.4330,-82.6670,86.33,1111122 
COMPS,ioos:station:USF.COMPS:ARP:1,2015-08-01T22:24:00Z,28.4330,-82.6670,86.8,1111122 
COMPS,ioos:station:USF.COMPS:ARP:1,2015-08-01T22:30:00Z,28.4330,-82.6670,87.24,1111122 
COMPS,ioos:station:USF.COMPS:ARP:1,2015-08-01T22:36:00Z,28.4330,-82.6670,87.17,1111122 
COMPS,ioos:station:USF.COMPS:ARP:1,2015-08-01T22:42:00Z,28.4330,-82.6670,87.18,1111122 
COMPS,ioos:station:USF.COMPS:ARP:1,2015-08-01T22:48:00Z,28.4330,-82.6670,88.61,1111122 
COMPS,ioos:station:USF.COMPS:ARP:1,2015-08-01T22:54:00Z,28.4330,-82.6670,90.03,1111122 
COMPS,ioos:station:USF.COMPS:ARP:1,2015-08-02T02:00:00Z,28.4330,-82.6670,90.29,1111122 
COMPS,ioos:station:USF.COMPS:ARP:1,2015-08-02T02:06:00Z,28.4330,-82.6670,90.53,1111122 
COMPS,ioos:station:USF.COMPS:ARP:1,2015-08-02T02:12:00Z,28.4330,-82.6670,90.56,1111122 
COMPS,ioos:station:USF.COMPS:ARP:1,2015-08-02T02:18:00Z,28.4330,-82.6670,90.37,1111122 
COMPS,ioos:station:USF.COMPS:ARP:1,2015-08-02T02:24:00Z,28.4330,-82.6670,90.27,1111122 
COMPS,ioos:station:USF.COMPS:ARP:1,2015-08-02T02:30:00Z,28.4330,-82.6670,90.37,1111122 
COMPS,ioos:station:USF.COMPS:ARP:1,2015-08-02T02:36:00Z,28.4330,-82.6670,88.84,1111122 
COMPS,ioos:station:USF.COMPS:ARP:1,2015-08-02T02:42:00Z,28.4330,-82.6670,89.12,1111122 
COMPS,ioos:station:USF.COMPS:ARP:1,2015-08-02T02:48:00Z,28.4330,-82.6670,89.79,1111122 
COMPS,ioos:station:USF.COMPS:ARP:1,2015-08-02T02:54:00Z,28.4330,-82.6670,90.15,1111122 
COMPS,ioos:station:USF.COMPS:ARP:1,2015-08-02T03:00:00Z,28.4330,-82.6670,90.79,1111122 
COMPS,ioos:station:USF.COMPS:ARP:1,2015-08-02T03:06:00Z,28.4330,-82.6670,90.17,1111122 
COMPS,ioos:station:USF.COMPS:ARP:1,2015-08-02T03:12:00Z,28.4330,-82.6670,89.48,1111122 
COMPS,ioos:station:USF.COMPS:ARP:1,2015-08-02T03:18:00Z,28.4330,-82.6670,89.51,1111122 
COMPS,ioos:station:USF.COMPS:ARP:1,2015-08-02T03:24:00Z,28.4330,-82.6670,91.06,1111122 
COMPS,ioos:station:USF.COMPS:ARP:1,2015-08-02T03:30:00Z,28.4330,-82.6670,92.28,1111122 
COMPS,ioos:station:USF.COMPS:ARP:1,2015-08-02T03:36:00Z,28.4330,-82.6670,92.98,1111122 
COMPS,ioos:station:USF.COMPS:ARP:1,2015-08-02T03:42:00Z,28.4330,-82.6670,93.7,1111122 
COMPS,ioos:station:USF.COMPS:ARP:1,2015-08-02T03:48:00Z,28.4330,-82.6670,94.19,1111122 
COMPS,ioos:station:USF.COMPS:ARP:1,2015-08-02T03:54:00Z,28.4330,-82.6670,94.52,1111122 
COMPS,ioos:station:USF.COMPS:ARP:1,2015-08-02T04:00:00Z,28.4330,-82.6670,94.81,1111122 
COMPS,ioos:station:USF.COMPS:ARP:1,2015-08-02T04:06:00Z,28.4330,-82.6670,95.1,1111122 
COMPS,ioos:station:USF.COMPS:ARP:1,2015-08-02T04:12:00Z,28.4330,-82.6670,95.36,1111122 
COMPS,ioos:station:USF.COMPS:ARP:1,2015-08-02T04:18:00Z,28.4330,-82.6670,95.5,1111122 
COMPS,ioos:station:USF.COMPS:ARP:1,2015-08-02T04:24:00Z,28.4330,-82.6670,95.71,1111122 
COMPS,ioos:station:USF.COMPS:ARP:1,2015-08-02T04:30:00Z,28.4330,-82.6670,95.84,1111122 
COMPS,ioos:station:USF.COMPS:ARP:1,2015-08-02T04:36:00Z,28.4330,-82.6670,95.91,1111122 
COMPS,ioos:station:USF.COMPS:ARP:1,2015-08-02T04:42:00Z,28.4330,-82.6670,96.0,1111122 
COMPS,ioos:station:USF.COMPS:ARP:1,2015-08-02T04:48:00Z,28.4330,-82.6670,96.06,1111122 
COMPS,ioos:station:USF.COMPS:ARP:1,2015-08-02T04:54:00Z,28.4330,-82.6670,96.16,1111122 
COMPS,ioos:station:USF.COMPS:ARP:1,2015-08-02T05:00:00Z,28.4330,-82.6670,96.29,1111122 
COMPS,ioos:station:USF.COMPS:ARP:1,2015-08-02T05:06:00Z,28.4330,-82.6670,96.42,1111122 
COMPS,ioos:station:USF.COMPS:ARP:1,2015-08-02T05:12:00Z,28.4330,-82.6670,96.54,1111122 
COMPS,ioos:station:USF.COMPS:ARP:1,2015-08-02T05:18:00Z,28.4330,-82.6670,96.66,1111122 
COMPS,ioos:station:USF.COMPS:ARP:1,2015-08-02T05:24:00Z,28.4330,-82.6670,96.78,1111122 
COMPS,ioos:station:USF.COMPS:ARP:1,2015-08-02T05:30:00Z,28.4330,-82.6670,96.86,1111122 
COMPS,ioos:station:USF.COMPS:ARP:1,2015-08-02T05:36:00Z,28.4330,-82.6670,96.96,1111122 
COMPS,ioos:station:USF.COMPS:ARP:1,2015-08-02T05:42:00Z,28.4330,-82.6670,97.01,1111122 
COMPS,ioos:station:USF.COMPS:ARP:1,2015-08-02T05:48:00Z,28.4330,-82.6670,97.05,1111122 
COMPS,ioos:station:USF.COMPS:ARP:1,2015-08-02T05:54:00Z,28.4330,-82.6670,97.05,1111122 
COMPS,ioos:station:USF.COMPS:ARP:1,2015-08-02T06:00:00Z,28.4330,-82.6670,97.11,1111122 
COMPS,ioos:station:USF.COMPS:ARP:1,2015-08-02T06:06:00Z,28.4330,-82.6670,97.13,1111122 